Location: Laterina
(43.5167°N, 11.7167°E)
Time: 14:11:08
(UTC+00:00)

Cosmos 2026 Rocket - Pass Details

Date: 25 January 2021
Orbit: 940 x 1000 km, 82.9° (Epoch: 28 February)

Event Time Altitude Azimuth Distance (km) Brightness Sun altitude
Rises 17:59:08 0° 189° (S) 3,604 7.2 -18.8°
Reaches altitude 10° 18:01:35 10° 190° (S) 2,670 6.5 -19.2°
Maximum altitude 18:07:42 81° 278° (W) 980 4.0 -20.3°
Drops below altitude 10° 18:13:58 10° 6° (N) 2,728 6.2 -21.4°
Sets 18:16:31 0° 8° (N) 3,689 6.9 -21.9°
